Wind_Speed
40 40 40 40 42 44 44 47 51 51 48 44 44 49 55 59 60 64 69 74 77 73 69 71 71 68 67 62 61 59 55 57 58 59 59 58 54 53
42 42 40 41 42 42 42 44 46 48 45 39 40 42 47 51 55 55 58 69 69 68 66 68 70 68 69 66 64 61 57 62 63 60 58 58 57 56
43 42 39 41 40 39 40 39 40 43 44 39 39 40 43 46 51 55 54 62 65 61 66 66 68 69 71 71 67 65 64 63 58 58 57 58 59 59
42 41 39 39 38 38 38 37 36 37 38 38 37 38 37 40 43 52 56 58 62 61 67 60 63 69 69 74 71 68 67 63 60 60 57 52 60 59
42 41 39 38 37 37 36 34 32 31 32 31 30 31 34 37 40 43 45 51 56 56 64 61 63 63 65 71 73 69 69 69 66 64 64 63 61 62
43 42 40 39 36 34 35 33 31 30 30 28 25 27 32 34 37 39 40 44 54 55 66 59 59 63 63 67 70 69 69 70 69 68 65 66 67 68
44 43 40 40 38 35 34 33 33 32 30 28 25 24 28 31 34 37 39 40 49 55 61 62 55 59 63 64 68 71 70 70 72 69 67 68 69 68
44 44 41 40 40 37 36 34 34 35 33 30 27 25 24 29 32 33 38 41 46 57 60 61 57 52 58 61 62 66 72 74 73 70 63 60 68 71
45 44 42 41 41 40 38 37 36 36 36 35 31 28 27 25 26 28 31 37 41 50 57 59 59 52 52 56 59 61 64 65 68 71 72 63 61 68
45 44 43 42 42 41 39 38 38 38 38 37 36 32 30 29 30 28 24 23 28 39 52 59 62 58 57 61 61 60 62 64 67 71 74 71 67 61
45 45 44 43 43 42 41 39 39 40 40 40 39 38 35 34 34 32 31 28 24 27 36 50 59 65 65 62 63 64 61 61 66 71 71 69 70 71
45 45 45 45 45 45 44 43 42 42 42 42 42 42 40 39 39 37 34 32 29 27 33 40 47 57 64 67 67 66 65 61 58 59 64 66 66 67
45 46 47 47 47 47 47 47 46 45 45 46 45 44 44 42 41 42 40 36 34 32 34 39 42 50 57 63 69 74 76 73 69 64 60 61 63 63
45 46 47 48 49 50 50 51 51 51 50 50 49 49 48 47 46 45 46 46 44 42 42 43 46 51 53 55 61 70 78 80 78 75 70 66 66 66
45 46 47 49 50 51 52 53 54 55 55 55 54 54 53 52 52 52 51 52 52 53 54 54 54 57 60 62 63 65 71 78 82 81 79 77 70 66
46 47 48 50 51 53 54 56 57 58 58 59 59 59 59 58 58 59 58 58 59 60 62 63 64 66 68 70 73 74 73 72 76 81 82 82 83 82
48 49 50 52 54 56 58 59 60 61 63 64 65 65 65 65 65 67 68 67 67 67 67 69 70 72 74 78 80 80 78 75 73 75 78 78 79 76
52 53 55 56 58 59 60 62 64 66 68 70 72 73 74 74 75 76 76 76 76 75 74 74 75 78 79 79 80 79 76 74 73 71 72 74 77 78
56 57 58 60 61 63 65 67 69 72 74 76 78 80 82 83 83 83 83 81 80 77 75 75 76 75 74 70 66 66 64 65 68 68 66 64 62 63
59 61 63 65 67 70 72 74 76 78 81 83 85 87 87 87 86 83 80 78 74 71 70 70 66 62 59 57 54 53 49 53 63 65 62 59 58 58
66 68 70 72 74 77 79 81 83 86 87 88 87 86 84 82 78 74 70 67 64 61 58 55 52 51 49 46 50 51 49 52 59 61 58 55 54 53
73 76 78 80 82 84 86 87 88 87 86 83 80 75 70 66 61 57 55 51 49 47 46 43 43 43 43 48 51 50 49 53 56 56 55 54 53 54
80 82 84 85 85 85 84 82 78 74 70 65 60 54 49 45 42 40 38 37 35 34 32 31 33 36 43 49 50 49 49 49 51 52 53 53 52 53
Wind_Direction
272 276 278 281 285 286 290 293 298 298 288 277 271 261 255 250 247 244 241 242 247 247 244 239 235 236 236 234 237 236 234 236 236 235 236 239 240 241
272 276 277 280 285 289 294 300 302 300 288 274 269 264 258 254 251 247 242 241 245 246 247 244 236 237 236 234 235 236 234 235 233 232 235 238 240 241
271 272 277 279 285 288 297 304 305 302 292 282 273 267 260 255 253 250 248 243 242 242 246 243 236 237 237 235 233 233 233 234 233 234 235 239 242 244
270 271 274 279 283 287 296 304 307 307 302 291 279 265 257 254 255 253 249 244 242 241 243 236 236 234 237 236 235 233 234 238 238 237 236 233 237 242
270 272 272 278 283 286 292 300 308 313 316 308 290 264 255 256 253 249 245 240 235 238 239 235 234 236 238 236 234 234 234 237 238 237 237 238 241 244
272 274 271 275 280 283 287 293 301 310 320 323 303 270 259 261 260 249 240 234 231 234 237 228 229 232 236 234 232 233 235 237 238 238 237 242 243 243
273 273 270 272 275 278 282 288 294 301 308 317 318 294 270 266 264 255 243 233 229 230 234 231 229 229 230 233 234 233 234 237 236 240 241 241 243 245
271 271 268 269 274 275 279 284 289 293 298 304 310 314 297 274 265 259 248 237 229 229 231 232 229 228 230 232 233 234 235 235 236 237 241 243 243 246
270 269 267 267 272 275 277 280 284 288 291 295 299 304 307 296 281 268 257 246 234 226 229 231 231 224 223 231 232 229 230 232 235 239 240 239 244 246
269 267 265 265 269 274 275 278 282 285 288 292 293 294 297 300 300 294 282 262 245 233 230 232 235 232 233 233 232 228 229 232 232 234 236 236 235 238
269 266 263 264 267 271 273 275 277 280 283 287 291 293 293 294 295 295 293 287 271 254 243 239 238 238 238 234 231 231 233 236 235 235 235 235 237 241
271 268 266 266 267 270 272 274 275 278 281 284 288 290 291 292 293 293 292 290 285 271 259 249 243 241 241 241 239 232 235 239 235 236 237 236 236 239
273 271 269 268 269 270 271 274 276 277 278 282 284 286 286 288 289 289 289 286 283 278 270 263 255 250 245 241 240 238 239 240 237 232 233 236 236 238
272 271 269 268 269 270 272 274 276 278 279 280 282 284 284 284 284 283 282 281 278 274 271 268 262 258 254 251 244 241 241 240 237 234 232 235 237 240
272 272 270 269 270 271 273 275 277 278 279 280 281 282 283 282 281 279 278 277 277 275 274 271 267 263 259 257 254 248 242 240 238 233 231 233 234 234
274 273 272 272 273 274 275 277 278 278 279 280 281 282 283 282 282 279 278 277 276 274 272 272 270 266 261 258 255 252 247 242 240 239 233 231 232 234
279 278 277 277 277 277 278 279 279 279 280 282 283 282 282 282 282 281 280 279 278 276 273 271 268 263 259 257 255 251 245 239 236 237 237 231 228 231
281 280 280 280 279 279 279 280 280 281 282 283 283 283 284 284 284 284 282 280 278 276 273 267 263 261 258 255 252 251 245 235 233 234 236 237 238 237
280 280 280 279 279 279 280 280 281 283 284 284 285 286 286 286 285 284 282 279 277 273 268 264 260 258 256 254 251 247 244 234 230 231 233 235 236 236
280 280 280 280 281 281 282 283 284 285 285 286 286 286 286 285 283 281 279 276 272 268 264 261 258 254 249 249 240 232 234 230 227 228 230 232 235 237
284 284 283 283 283 284 284 284 284 285 285 286 286 285 284 282 279 276 272 269 267 264 260 255 249 243 242 235 223 221 225 225 224 224 226 228 230 230
285 284 284 284 284 285 285 286 286 287 287 286 285 282 279 276 273 269 265 262 258 256 252 244 237 237 231 216 213 217 223 224 221 221 221 223 229 232
285 284 284 285 285 286 287 287 287 286 285 284 282 279 276 271 265 259 254 251 249 246 237 228 225 219 211 209 211 216 221 221 219 218 220 224 229 233
Height
5588 5589 5590 5588 5587 5585 5582 5575 5568 5562 5560 5560 5558 5558 5560 5566 5574 5581 5590 5597 5602 5608 5615 5622 5631 5640 5648 5656 5664 5671 5676 5680 5683 5688 5695 5700 5705 5709
5578 5578 5577 5576 5574 5571 5567 5560 5552 5546 5544 5547 5546 5544 5544 5549 5555 5562 5569 5576 5583 5591 5597 5604 5613 5623 5632 5641 5650 5658 5663 5666 5670 5673 5680 5686 5692 5696
5566 5565 5564 5563 5562 5559 5554 5548 5541 5534 5530 5533 5532 5531 5531 5533 5538 5543 5549 5556 5564 5572 5580 5587 5595 5606 5616 5625 5634 5642 5647 5653 5657 5660 5666 5672 5677 5682
5554 5553 5552 5551 5550 5547 5542 5537 5531 5524 5519 5518 5518 5518 5518 5519 5522 5527 5531 5537 5546 5554 5563 5570 5578 5588 5599 5609 5618 5627 5634 5639 5641 5648 5655 5659 5663 5668
5543 5541 5540 5539 5539 5535 5532 5528 5522 5516 5510 5506 5505 5505 5506 5507 5509 5512 5515 5520 5529 5537 5544 5554 5565 5574 5583 5593 5602 5611 5621 5625 5629 5636 5640 5645 5649 5655
5531 5530 5529 5528 5527 5525 5522 5518 5514 5509 5504 5499 5496 5496 5497 5497 5497 5499 5502 5505 5514 5520 5528 5538 5547 5558 5567 5576 5586 5594 5603 5611 5616 5622 5627 5632 5637 5642
5520 5519 5518 5517 5516 5513 5511 5508 5505 5501 5497 5493 5489 5486 5488 5488 5487 5487 5489 5491 5500 5506 5513 5523 5532 5543 5550 5559 5569 5577 5586 5595 5603 5608 5614 5620 5624 5628
5506 5506 5506 5505 5503 5502 5500 5499 5495 5492 5489 5486 5484 5481 5479 5478 5477 5477 5478 5480 5486 5494 5502 5511 5518 5528 5537 5545 5553 5561 5569 5579 5587 5593 5597 5603 5609 5615
5493 5492 5492 5492 5490 5490 5490 5488 5485 5482 5480 5478 5477 5475 5473 5471 5469 5468 5468 5471 5477 5483 5491 5501 5508 5517 5525 5532 5538 5545 5553 5561 5569 5577 5584 5589 5595 5601
5479 5479 5478 5478 5477 5478 5478 5476 5474 5471 5468 5467 5466 5467 5466 5464 5462 5461 5462 5464 5468 5474 5480 5490 5498 5505 5511 5516 5524 5531 5537 5543 5550 5557 5564 5572 5581 5586
5466 5465 5465 5465 5464 5464 5464 5464 5462 5460 5458 5456 5454 5454 5456 5455 5454 5454 5455 5456 5459 5462 5468 5474 5482 5488 5495 5503 5509 5516 5522 5528 5533 5538 5545 5553 5560 5566
5450 5451 5450 5450 5450 5449 5449 5450 5450 5448 5447 5444 5443 5442 5442 5444 5443 5442 5444 5445 5447 5452 5456 5461 5466 5472 5481 5489 5496 5501 5507 5513 5518 5524 5529 5534 5541 5546
5436 5435 5435 5434 5433 5434 5434 5434 5434 5434 5434 5433 5432 5431 5430 5430 5431 5430 5431 5434 5437 5440 5445 5448 5451 5456 5463 5471 5477 5483 5488 5494 5500 5506 5512 5518 5524 5528
5421 5420 5420 5419 5418 5418 5418 5417 5417 5417 5418 5418 5418 5418 5417 5417 5418 5419 5419 5419 5422 5427 5432 5435 5437 5440 5444 5450 5457 5464 5467 5472 5479 5487 5494 5501 5507 5512
5405 5404 5403 5403 5402 5402 5401 5401 5400 5399 5399 5400 5401 5401 5401 5401 5402 5404 5406 5406 5407 5408 5410 5415 5418 5420 5423 5428 5433 5439 5445 5451 5456 5465 5472 5480 5488 5494
5388 5387 5386 5386 5385 5385 5384 5383 5382 5381 5380 5381 5381 5381 5382 5382 5383 5384 5387 5389 5390 5392 5392 5393 5394 5395 5399 5403 5406 5413 5422 5430 5436 5442 5451 5457 5465 5473
5371 5370 5368 5367 5367 5366 5364 5363 5362 5361 5360 5359 5358 5359 5360 5361 5361 5362 5363 5365 5367 5369 5370 5369 5368 5370 5373 5376 5380 5387 5397 5407 5414 5422 5429 5438 5444 5452
5353 5351 5349 5348 5347 5346 5345 5343 5342 5340 5339 5337 5336 5334 5333 5333 5334 5334 5334 5336 5338 5339 5339 5338 5338 5338 5342 5347 5351 5360 5371 5385 5394 5403 5409 5417 5427 5435
5334 5331 5329 5327 5326 5325 5323 5321 5319 5316 5314 5311 5309 5306 5304 5303 5302 5302 5302 5302 5304 5306 5307 5305 5306 5309 5313 5320 5327 5336 5348 5362 5375 5383 5391 5401 5410 5419
5314 5311 5309 5306 5303 5301 5298 5295 5292 5289 5286 5283 5280 5277 5274 5272 5271 5270 5269 5268 5270 5272 5275 5277 5280 5285 5292 5302 5309 5320 5330 5343 5354 5365 5375 5385 5393 5401
5291 5287 5284 5281 5278 5275 5272 5269 5266 5262 5258 5254 5251 5247 5244 5242 5241 5239 5239 5238 5240 5244 5250 5255 5260 5265 5272 5281 5291 5305 5316 5326 5337 5349 5361 5370 5378 5386
5265 5261 5257 5254 5251 5247 5244 5239 5235 5231 5227 5224 5221 5218 5214 5212 5212 5213 5214 5217 5220 5224 5230 5235 5241 5249 5258 5269 5282 5294 5304 5313 5323 5334 5346 5357 5365 5374
5238 5234 5230 5226 5222 5219 5215 5211 5207 5203 5199 5196 5192 5190 5189 5190 5192 5195 5198 5202 5206 5210 5215 5223 5231 5239 5250 5262 5273 5283 5293 5302 5312 5322 5333 5345 5354 5362